Flag for U.S.A. Weather past 2 weeks in Prescott, Arizona, U.S.A.

Now
66 °F

Sunny.


Feels Like: 66 °F
Forecast: 52 / 83 °F
Wind: No wind

Location: Love Field

Current Time: May 29, 2015 at 8:28:07 AM

Latest Report: May 29, 2015 at 7:53 AM


Visibility: 10 mi

Pressure: 29.96 "Hg

Humidity: 33%

Dew point: 36 °F

Location of PrescottLocation

Historic Weather in Prescott — Graph

°F

Prescott temperature yesterday

Maximum temperature yesterday: 81 °F (at 1:53 PM)
Minimum temperature yesterday: 44 °F (at 4:53 AM)
Average temperature yesterday: 66 °F

Past Weeks' High & Low Weather Summary

 TemperatureHumidityPressure
High81 °F (May 28, 1:53 PM)89% (May 16, 2:00 AM)30.00 "Hg (May 16, 2:00 AM)
Low39 °F (May 15, 1:53 AM)9% (May 28, 11:53 AM)29.68 "Hg (May 14, 1:53 PM)
Average57 °F42%29.86 "Hg
* Reported May 14 6:53 AM — May 29 6:53 AM, Prescott, Weather by CustomWeather, © 2015

Note: Actual official high and low records may vary slightly from our data, if they occured in-between our weather recording intervals... More about our weather records

Advertising

Prescott weather history for previous 24 hours

 ConditionsComfort  
Time TempWeatherWind HumidityBarometerVisibility
6:53 AM
Fri, May 29
57 °FSunny.3 mph42%29.95 "Hg10 mi
5:53 AM52 °FSunny.6 mph49%29.93 "Hg10 mi
4:53 AM52 °FClear.6 mph47%29.90 "Hg10 mi
3:53 AM57 °FClear.10 mph33%29.89 "Hg10 mi
2:53 AM58 °FClear.8 mph32%29.88 "Hg10 mi
1:53 AM63 °FClear.6 mph24%29.87 "Hg10 mi
12:53 AM63 °FClear.9 mph25%29.87 "Hg10 mi
11:53 PM
Thu, May 28
63 °FClear.7 mph26%29.88 "Hg10 mi
10:53 PM63 °FClear.9 mph28%29.89 "Hg10 mi
9:53 PM63 °FClear.6 mph26%29.90 "Hg10 mi
8:53 PM66 °FClear.8 mph25%29.88 "Hg10 mi
7:53 PM70 °FClear.9 mph19%29.87 "Hg10 mi
6:53 PM76 °FSunny.7 mph15%29.87 "Hg10 mi
5:53 PM80 °FSunny.13 mph13%29.87 "Hg10 mi
4:53 PM81 °FSunny.14 mph13%29.88 "Hg10 mi
3:53 PM81 °FSunny.12 mph10%29.88 "Hg10 mi
2:53 PM81 °FSunny.7 mph9%29.90 "Hg10 mi
1:53 PM81 °FSunny.13 mph11%29.90 "Hg10 mi
12:53 PM80 °FSunny.10 mph10%29.91 "Hg10 mi
11:53 AM78 °FSunny.13 mph9%29.92 "Hg10 mi
10:53 AM76 °FSunny.7 mph13%29.94 "Hg10 mi
9:53 AM73 °FSunny.6 mph15%29.94 "Hg10 mi
8:53 AM71 °FSunny.No wind19%29.94 "Hg10 mi
Weather by CustomWeather, © 2015

See weather overviewHow to use our weather pages